LiveATC.Net - Listen to live air traffic control over the Internet!


ICAO: KPEO  IATA: PEO   Airport: Penn Yan Airport
City: Penn Yan   State/Province: New York
Country: United States   Continent: North America
KPEO METAR Weather: KPEO 040153Z AUTO 15003KT 10SM CLR 18/17 A2972 RMK AO2 RAB04E28 SLP060 P0000 T01780167
KPEO Flight Activity (FlightAware)
KPEO Webcam:  (Airport Webcams) 
KPEO Airport Info   (iFlightPlanner)
KPEO VFR Sectional Chart   (iFlightPlanner) 
KPEO IFR Low Chart   (iFlightPlanner) 

KPEO CTAF
Feed Status: UP   Listeners: 0
Listen in your browser - HTML5 player (in browser, HTML5)
Click here to listen with your own player (launches your MP3 player)
Archive Access: KPEO CTAF
FacilityFrequency
Penn Yan CTAF123.000

NOTICE

Unauthorized use prohibited. See LiveATC.net Terms of Service


Airport/ARTCC Code
Frequency Search
(e.g., 124.400, 128.75)
Site-wide search
 


Browse Feeds
Top 50 Feeds
Coverage Map
Bad Weather Areas

LiveATC FAQ
Offer LiveATC feed
Contact LiveATC.net
Press Inquiries

LiveATC on iPhone
LiveATC on Android

Windows Phone
Windows 8/10

LiveATC Mobile
(Mobile browser)

ATC Audio Archives
Interesting Recordings

LiveATC Forums


Home Page
About LiveATC.net
Make a Donation
Terms of Use
Privacy Policy

Canadian Air Freqs

AIRMETs/SIGMETs

FAA Airport Status
Nat'l Airspace Status
Arrival Demand Charts


Server Software By:
Icecast.org
Liquidsoap